Regional Weather Roundup
Issued by NWS Kansas City/Pleasant Hill, MO

Home | Current Version | Previous Version | Text Only | Print | Product List | Glossary On
Versions: 1 2 3 4 5 6 7 8 9 10 11 12 13 14 15 16 17 18 19 20 21 22 23 24 25 26 27 28
000
ASUS43 KEAX 021910
RWREAX

WEATHER ROUNDUP FOR EASTERN KANSAS AND NORTHWEST MISSOURI
NATIONAL WEATHER SERVICE KANSAS CITY/PLEASANT HILL MO
100 PM CST FRI DEC 02 2016

KSZ040-057-103>105-MOZ028-029-037-043-022000-
...KANSAS CITY METROPOLITAN AREA...

CITY           SKY/WX    TMP DP  RH WIND       PRES   REMARKS
K.C. INTL      MOSUNNY   47  27  45 NE5       30.27F
K.C. DOWNTOWN  SUNNY     49  29  46 CALM      30.27F
LEES SUMMIT    SUNNY     48  27  44 CALM      30.27F
OLATHE - IXD   SUNNY     49  26  41 CALM      30.26F
OLATHE - OJC   SUNNY     49  26  41 VRB5      30.26F
LAWRENCE       SUNNY     50  29  44 VRB5      30.27F

$$

MOZ001>008-011>017-020>025-030>033-038>040-044>046-053-054-022000-
...NORTHERN AND CENTRAL MISSOURI...

CITY           SKY/WX    TMP DP  RH WIND       PRES   REMARKS
ST. JOSEPH     SUNNY     44  29  55 CALM      30.28F
MOSBY          CLEAR     46  28  49 NW5       30.27F
WARRENSBURG    SUNNY     46  28  49 CALM      30.27F
WHITEMAN AFB   MOSUNNY   49  26  41 CALM      30.26F
CLINTON        SUNNY     50  28  43 NE5       30.27F
SEDALIA        SUNNY     49  26  41 VRB5      30.28F
WARSAW         NOT AVBL
CHILLICOTHE      N/A     45  31  58 MISG      30.29S
KIRKSVILLE     SUNNY     44  30  57 SW3       30.26S

$$

MOZ041-047>049-056>058-063>065-088>090-097-022000-
...EASTERN AND SOUTHERN MISSOURI...

CITY           SKY/WX    TMP DP  RH WIND       PRES   REMARKS
ST. LOUIS INTL MOSUNNY   47  29  49 NW9       30.27F
SPIRIT OF STL  SUNNY     48  31  51 N8        30.27S
COLUMBIA       SUNNY     47  27  45 NW7       30.27S
JEFFERSON CITY SUNNY     48  28  46 NW5       30.28S
ROLLA          SUNNY     50  26  39 N7        30.25F
OSAGE BEACH    SUNNY     52  26  36 VRB3      30.27F
SPRINGFIELD    SUNNY     55  24  30 NE6       30.23S
BRANSON        PTSUNNY   54  28  37 CALM      30.24S
JOPLIN         PTSUNNY   57  28  33 E6        30.23F
WEST PLAINS    SUNNY     54  27  35 VRB3      30.24F

$$

IAZ060-094-KSZ022-034>040-054-083-096-NEZ052-066-093-022000-
...KANSAS...SOUTHEAST NEBRASKA AND IOWA...

CITY           SKY/WX    TMP DP  RH WIND       PRES   REMARKS
TOPEKA         SUNNY     50  28  42 CALM      30.28S
MANHATTAN      MOSUNNY   46  26  45 CALM      30.28R
EMPORIA        CLOUDY    49  23  36 E7        30.25S
CHANUTE        MOSUNNY   56  23  27 VRB6      30.23F
WICHITA        CLOUDY    50  27  40 NE5       30.24S
OMAHA          PTSUNNY   40  29  64 CALM      30.30R
LINCOLN        SUNNY     44  29  55 NW3       30.30F
FALLS CITY     SUNNY     42  29  59 NW5       30.28F
LAMONI         MOSUNNY   42  30  62 W9        30.26S
DES MOINES     CLOUDY    40  31  70 NW3       30.26S

$$





USA.gov is the U.S. government's official web portal to all federal, state and local government web resources and services.